STARLINK-4534 (53395 NORAD) Tracking and Keplerian Element Data

This shows tracking and keplerian element data for the satellite.

Feedback or suggestion? Click here.




ElementValue
Catalog53395
NameSTARLINK-4534
Epoch Orbit788
Epoch Day270.25001157
Epoch Year2022
RAAN17.9668
Inclination53.219
Eccentricity0.0001819
Argument of Perigee53.2723
Mean Anonmoly150.0092
Mean Motion15.08829258
Decay Rate0.00039778
L11 53395U 22097H 22270.25001157 .00039778 00000+0 25041-2 0 9996
L22 53395 53.2190 17.9668 0001819 53.2723 150.0092 15.08829258 7883

Live tracking and technical data element details for STARLINK-4534 (NORAD 53395). STARLINK-4534 can be tracked NOW for your location showing map with azimuth and elevation plus other details from your city location.

Track the satellite on the map from your city or location and see movement details for azimuth, elevation, latitude, longitude, range, height, and movement on the map or in text.







IsCatalogInMostPopularTable: catalog: 53395, numindb: 5
Update: records affected: 1



GetName: 53395 STARLINK-4534

Hit Count: updated at: Thu, 29 Sep 2022 11:45:46 GMT